Home > Weather > Gröbming > Past weeks

Flag for Austria Past Weather in Gröbming, Styria, Austria — Yesterday and Last 2 Weeks

Now
78 °F

Warm.


Feels Like: 79 °F
Forecast: 52 / 83 °F
Wind: 1 mph from Northwest

Location: Aigen Im Ennstal

Current Time: Jun 30, 2016 at 2:25:38 PM

Latest Report: Jun 30, 2016 at 1:00 PM


Visibility: N/A

Pressure: 29.90 "Hg (27.38 "Hg at 769m altitude)

Humidity: 50%

Dew Point: 58 °F

Location of GröbmingLocation

Past Weather in Gröbming — Graph

°F

Gröbming Temperature Yesterday

Maximum temperature yesterday: 81 °F (at 4:00 PM)
Minimum temperature yesterday: 49 °F (at 3:00 AM)
Average temperature yesterday: 64 °F

High & Low Weather Summary for the Past Weeks

 TemperatureHumidityPressure
High90 °F (Jun 24, 5:00 PM)95% (Jun 16, 12:00 AM)30.38 "Hg (Jun 16, 12:00 AM)
Low48 °F (Jun 18, 6:00 AM)33% (Jun 23, 3:00 PM)29.50 "Hg (Jun 17, 2:00 AM)
Average64 °F73%30.02 "Hg
* Reported Jun 15 1:00 PM — Jun 30 1:00 PM, Gröbming, Weather by CustomWeather, © 2016

Note: Actual official high and low records may vary slightly from our data, if they occured in-between our weather recording intervals... More about our weather records

Advertising

Gröbming Weather History for the Previous 24 Hours

Scroll right to see more
 ConditionsComfort  
Time TempWeatherWind HumidityBarometerVisibility
1:00 PM
Thu, Jun 30
78 °FWarm.1 mph50%29.90 "HgN/A
12:00 PM77 °FWarm.2 mph47%29.91 "HgN/A
11:00 AM74 °FPartly sunny.N/A61%29.92 "Hg25 mi
10:00 AM70 °FMild.1 mph65%29.96 "HgN/A
9:00 AM67 °FMild.No wind69%29.98 "HgN/A
8:00 AM65 °FScattered clouds.N/A76%29.99 "Hg25 mi
7:00 AM60 °FScattered clouds.N/A86%30.01 "Hg25 mi
6:00 AM59 °FCool.1 mph83%30.03 "HgN/A
5:00 AM58 °FPassing clouds.N/A89%30.01 "Hg19 mi
4:00 AM58 °FCool.1 mph89%30.01 "HgN/A
3:00 AM58 °FCool.1 mph85%30.00 "HgN/A
2:00 AM58 °FClear.No wind86%29.98 "Hg12 mi
1:00 AM62 °FCool.1 mph83%29.97 "HgN/A
9:00 PM
Wed, Jun 29
71 °FMild.2 mph68%29.89 "HgN/A
8:00 PM72 °FPassing clouds.3 mph67%29.87 "Hg31 mi
7:00 PM75 °FMild.3 mph55%29.86 "HgN/A
6:00 PM77 °FWarm.5 mph52%29.85 "HgN/A
5:00 PM80 °FPassing clouds.3 mph47%29.84 "Hg31 mi
4:00 PM81 °FPleasantly warm.5 mph39%29.86 "HgN/A
2:00 PM78 °FPassing clouds.3 mph40%29.90 "Hg31 mi
Weather by CustomWeather, © 2016

See weather overviewHow to use our weather pages